RWZ150 UWOO-UUBW

Flight info

Callsign RWZ150
Flight time N/A
Altitude 36000
Route PIMAM5D PIMAM M162 PODUT T750 MOF T759 TIRET T784 OTKOL T787 URAGO URAGO2W
Aircraft SU95/M-SDE3GILORVW/S

Departure

Time 2026-04-28 12:22
Airport Orenburg Central Airport (UWOO)

Arrival

Time N/A
Airport Zhukovsky International Airport (UUBW)
Time Latitude Longitude Altitude Speed Heading
2026-04-28 12:17 51.79223 55.45881 390 ft 0 kts 359°
2026-04-28 12:18 51.79224 55.45881 390 ft 1 kts 358°
2026-04-28 12:18 51.79244 55.45880 394 ft 5 kts 357°
2026-04-28 12:19 51.79271 55.45852 390 ft 4 kts 258°
2026-04-28 12:19 51.79272 55.45804 390 ft 5 kts 281°
2026-04-28 12:19 51.79293 55.45738 390 ft 9 kts 321°
2026-04-28 12:19 51.79366 55.45716 390 ft 12 kts 355°
2026-04-28 12:20 51.79451 55.45716 390 ft 13 kts
2026-04-28 12:20 51.79543 55.45718 389 ft 14 kts 12°
2026-04-28 12:20 51.79578 55.45841 390 ft 14 kts 91°
2026-04-28 12:20 51.79580 55.46039 390 ft 22 kts 87°
2026-04-28 12:21 51.79573 55.46321 391 ft 28 kts 95°
2026-04-28 12:21 51.79580 55.46597 391 ft 16 kts 85°
2026-04-28 12:21 51.79570 55.46716 391 ft 2 kts 44°
2026-04-28 12:21 51.79576 55.46710 391 ft 4 kts 294°
2026-04-28 12:22 51.79579 55.46589 391 ft 32 kts 268°
2026-04-28 12:22 51.79579 55.45747 389 ft 114 kts 269°
2026-04-28 12:22 51.79615 55.44126 565 ft 163 kts 269°
2026-04-28 12:22 51.79622 55.42203 1104 ft 191 kts 265°
2026-04-28 12:23 51.79591 55.39969 1918 ft 192 kts 265°
2026-04-28 12:23 51.79570 55.37820 2996 ft 197 kts 266°
2026-04-28 12:23 51.79555 55.35492 3651 ft 218 kts 267°
2026-04-28 12:23 51.79547 55.32965 4288 ft 237 kts 268°
2026-04-28 12:24 51.79911 55.30330 5264 ft 246 kts 292°
2026-04-28 12:24 51.80986 55.28109 6276 ft 260 kts 318°
2026-04-28 12:24 51.82497 55.26399 7167 ft 270 kts 321°
2026-04-28 12:24 51.84075 55.24689 8113 ft 275 kts 320°
2026-04-28 12:25 51.85676 55.22959 9111 ft 279 kts 319°
2026-04-28 12:25 51.87297 55.21194 10113 ft 283 kts 318°
2026-04-28 12:25 51.88957 55.19369 10770 ft 298 kts 317°
2026-04-28 12:25 51.90730 55.17390 11184 ft 319 kts 316°
2026-04-28 12:26 51.92413 55.15119 11968 ft 318 kts 307°
2026-04-28 12:26 51.93889 55.12479 12912 ft 316 kts 301°
2026-04-28 12:26 51.95316 55.09739 13815 ft 321 kts 301°
2026-04-28 12:26 51.96773 55.06960 14622 ft 325 kts 301°
2026-04-28 12:27 51.98243 55.04149 15408 ft 329 kts 301°
2026-04-28 12:27 51.99685 55.01388 16182 ft 333 kts 301°
2026-04-28 12:27 52.01188 54.98503 16951 ft 337 kts 301°
2026-04-28 12:27 52.02710 54.95574 17721 ft 341 kts 300°
2026-04-28 12:28 52.04250 54.92608 18484 ft 345 kts 300°
2026-04-28 12:28 52.05804 54.89609 19145 ft 349 kts 300°
2026-04-28 12:28 52.07348 54.86549 19815 ft 350 kts 297°
2026-04-28 12:28 52.08786 54.83424 20452 ft 354 kts 297°
2026-04-28 12:29 52.11272 54.78051 21544 ft 361 kts 297°
2026-04-28 12:29 52.13287 54.73696 22383 ft 367 kts 297°
2026-04-28 12:30 52.15963 54.67894 23486 ft 374 kts 297°
2026-04-28 12:30 52.17513 54.64529 24038 ft 378 kts 297°
2026-04-28 12:30 52.19096 54.61089 24595 ft 381 kts 297°
2026-04-28 12:30 52.20619 54.57773 25112 ft 384 kts 297°
2026-04-28 12:31 52.22487 54.53698 25722 ft 388 kts 297°
2026-04-28 12:31 52.24111 54.50152 26237 ft 391 kts 297°
2026-04-28 12:31 52.25729 54.46613 26728 ft 395 kts 297°
2026-04-28 12:31 52.27376 54.43002 27212 ft 398 kts 297°
2026-04-28 12:32 52.29017 54.39402 27676 ft 401 kts 296°
2026-04-28 12:32 52.30689 54.35728 28135 ft 404 kts 296°
2026-04-28 12:32 52.32220 54.31907 28567 ft 399 kts 289°
2026-04-28 12:32 52.33451 54.28004 28989 ft 399 kts 287°
2026-04-28 12:33 52.34717 54.23924 29412 ft 402 kts 287°
2026-04-28 12:33 52.35994 54.19829 29824 ft 406 kts 287°
2026-04-28 12:33 52.37279 54.15707 30214 ft 409 kts 287°
2026-04-28 12:33 52.38572 54.11552 30596 ft 411 kts 287°
2026-04-28 12:34 52.39873 54.07358 30970 ft 414 kts 287°
2026-04-28 12:34 52.41178 54.03141 31343 ft 416 kts 287°
2026-04-28 12:34 52.42486 53.98903 31694 ft 419 kts 288°
2026-04-28 12:34 52.43804 53.94629 32057 ft 421 kts 288°
2026-04-28 12:35 52.45124 53.90336 32390 ft 423 kts 288°
2026-04-28 12:35 52.46435 53.86068 32726 ft 425 kts 288°
2026-04-28 12:35 52.47765 53.81730 33130 ft 426 kts 288°
2026-04-28 12:35 52.49094 53.77393 33570 ft 425 kts 287°
2026-04-28 12:36 52.50421 53.73054 34008 ft 424 kts 287°
2026-04-28 12:36 52.51742 53.68723 34373 ft 423 kts 287°
2026-04-28 12:36 52.53059 53.64396 34693 ft 423 kts 288°
2026-04-28 12:36 52.54373 53.60069 34987 ft 423 kts 288°
2026-04-28 12:37 52.55661 53.55819 35279 ft 423 kts 288°
2026-04-28 12:37 52.56972 53.51478 35570 ft 423 kts 288°
2026-04-28 12:37 52.58281 53.47138 35857 ft 423 kts 288°
2026-04-28 12:37 52.59587 53.42803 36078 ft 424 kts 288°
2026-04-28 12:38 52.60894 53.38464 36063 ft 422 kts 288°
2026-04-28 12:38 52.63450 53.29958 36062 ft 421 kts 288°
2026-04-28 12:39 52.66022 53.21362 36059 ft 421 kts 288°
2026-04-28 12:39 52.68607 53.12696 36061 ft 421 kts 288°
2026-04-28 12:40 52.71186 53.04016 36053 ft 420 kts 288°
2026-04-28 12:40 52.73751 52.95352 36054 ft 420 kts 287°
2026-04-28 12:41 52.76306 52.86689 36048 ft 420 kts 287°
2026-04-28 12:41 52.78839 52.78064 36041 ft 419 kts 287°
2026-04-28 12:42 52.81377 52.69395 36035 ft 419 kts 287°
2026-04-28 12:42 52.83912 52.60703 36032 ft 419 kts 287°
2026-04-28 12:43 52.86435 52.52020 36024 ft 419 kts 287°
2026-04-28 12:43 52.88954 52.43319 36028 ft 419 kts 287°
2026-04-28 12:44 52.91469 52.34599 36029 ft 419 kts 287°
2026-04-28 12:44 52.93960 52.25932 36024 ft 420 kts 287°
2026-04-28 12:45 52.96464 52.17184 36022 ft 420 kts 287°
2026-04-28 12:45 52.98960 52.08435 36022 ft 420 kts 287°
2026-04-28 12:46 53.01459 51.99644 36023 ft 421 kts 287°
2026-04-28 12:46 53.03948 51.90842 36025 ft 421 kts 287°
2026-04-28 12:47 53.06436 51.82006 36018 ft 421 kts 287°
2026-04-28 12:47 53.08913 51.73177 36016 ft 422 kts 287°
2026-04-28 12:48 53.11383 51.64342 36019 ft 422 kts 287°
2026-04-28 12:48 53.13437 51.56968 36009 ft 422 kts 287°
2026-04-28 12:49 53.15894 51.48111 36007 ft 421 kts 287°
2026-04-28 12:49 53.18346 51.39234 36001 ft 421 kts 287°
2026-04-28 12:50 53.20790 51.30357 35991 ft 421 kts 287°
2026-04-28 12:50 53.23229 51.21474 35989 ft 421 kts 287°
2026-04-28 12:51 53.25628 51.12701 35983 ft 421 kts 287°
2026-04-28 12:51 53.28053 51.03799 35975 ft 421 kts 287°
2026-04-28 12:52 53.30472 50.94882 35972 ft 421 kts 286°
2026-04-28 12:52 53.32885 50.85952 35970 ft 421 kts 286°
2026-04-28 12:53 53.35277 50.77066 35967 ft 421 kts 286°
2026-04-28 12:53 53.37681 50.68102 35961 ft 422 kts 286°
2026-04-28 12:54 53.40076 50.59136 35955 ft 422 kts 286°
2026-04-28 12:54 53.42469 50.50144 35953 ft 422 kts 286°
2026-04-28 12:55 53.44855 50.41142 35948 ft 422 kts 286°
2026-04-28 12:55 53.47227 50.32153 35946 ft 422 kts 286°
2026-04-28 12:56 53.49506 50.23074 35943 ft 417 kts 281°
2026-04-28 12:56 53.50678 50.13693 35936 ft 406 kts 269°
2026-04-28 12:57 53.50653 50.04305 35930 ft 401 kts 262°
2026-04-28 12:57 53.50418 49.95034 35933 ft 401 kts 263°
2026-04-28 12:58 53.50174 49.85669 35934 ft 401 kts 263°
2026-04-28 12:58 53.49913 49.76309 35934 ft 401 kts 262°
2026-04-28 12:59 53.49644 49.66938 35935 ft 402 kts 262°
2026-04-28 12:59 53.49368 49.57556 35934 ft 402 kts 262°
2026-04-28 13:00 53.49083 49.48174 35933 ft 402 kts 262°
2026-04-28 13:00 53.48792 49.38773 35929 ft 403 kts 262°
2026-04-28 13:01 53.48492 49.29381 35926 ft 403 kts 262°
2026-04-28 13:01 53.48185 49.19973 35928 ft 403 kts 262°
2026-04-28 13:02 53.47870 49.10569 35926 ft 404 kts 262°
2026-04-28 13:02 53.47548 49.01157 35930 ft 404 kts 262°
2026-04-28 13:03 53.47310 48.91752 35930 ft 406 kts 266°
2026-04-28 13:03 53.47402 48.82260 35922 ft 406 kts 266°
2026-04-28 13:04 53.47488 48.72766 35919 ft 406 kts 266°
2026-04-28 13:04 53.47559 48.63300 35920 ft 407 kts 266°
2026-04-28 13:05 53.47620 48.53861 35919 ft 407 kts 266°
2026-04-28 13:05 53.47673 48.44346 35912 ft 407 kts 266°
2026-04-28 13:06 53.47720 48.34789 35907 ft 407 kts 266°
2026-04-28 13:06 53.47758 48.25346 35908 ft 407 kts 266°
2026-04-28 13:07 53.47790 48.15788 35902 ft 407 kts 266°
2026-04-28 13:07 53.47815 48.06270 35900 ft 407 kts 266°
2026-04-28 13:08 53.47830 47.96957 35899 ft 407 kts 266°
2026-04-28 13:08 53.47838 47.87449 35895 ft 408 kts 266°
2026-04-28 13:09 53.48654 47.72700 35889 ft 418 kts 283°
2026-04-28 13:09 53.49775 47.68304 35880 ft 426 kts 292°
2026-04-28 13:10 53.53476 47.60411 35875 ft 442 kts 309°
2026-04-28 13:10 53.57904 47.53217 35871 ft 442 kts 309°
2026-04-28 13:11 53.62321 47.45983 35865 ft 443 kts 309°
2026-04-28 13:11 53.66741 47.38708 35861 ft 444 kts 309°
2026-04-28 13:12 53.71088 47.31528 35855 ft 445 kts 309°
2026-04-28 13:12 53.75512 47.24199 35851 ft 446 kts 309°
2026-04-28 13:13 53.79942 47.16838 35845 ft 446 kts 309°
2026-04-28 13:13 53.84339 47.09501 35839 ft 447 kts 309°
2026-04-28 13:14 53.88764 47.02092 35832 ft 447 kts 309°
2026-04-28 13:14 53.93181 46.94678 35824 ft 447 kts 309°
2026-04-28 13:15 53.97534 46.87345 35819 ft 447 kts 309°
2026-04-28 13:15 54.01202 46.81149 35814 ft 447 kts 309°
2026-04-28 13:16 54.06323 46.72476 35803 ft 447 kts 309°
2026-04-28 13:16 54.10011 46.66216 35799 ft 446 kts 309°
2026-04-28 13:17 54.14380 46.58776 35790 ft 446 kts 309°
2026-04-28 13:17 54.18696 46.51405 35782 ft 446 kts 309°
2026-04-28 13:18 54.23072 46.43905 35778 ft 446 kts 309°
2026-04-28 13:18 54.27449 46.36380 35774 ft 446 kts 309°
2026-04-28 13:19 54.31827 46.28829 35776 ft 446 kts 309°
2026-04-28 13:19 54.36030 46.21557 35765 ft 446 kts 309°
2026-04-28 13:20 54.40395 46.13981 35762 ft 446 kts 309°
2026-04-28 13:20 54.44735 46.06426 35758 ft 446 kts 309°
2026-04-28 13:21 54.49100 45.98799 35756 ft 447 kts 309°
2026-04-28 13:21 54.53452 45.91169 35754 ft 447 kts 309°
2026-04-28 13:22 54.57812 45.83501 35753 ft 448 kts 309°
2026-04-28 13:22 54.62170 45.75813 35751 ft 448 kts 309°
2026-04-28 13:23 54.66531 45.68095 35751 ft 448 kts 309°
2026-04-28 13:23 54.70802 45.60511 35751 ft 448 kts 309°
2026-04-28 13:24 54.75248 45.52901 35749 ft 452 kts 315°
2026-04-28 13:24 54.80362 45.46432 35745 ft 456 kts 320°
2026-04-28 13:25 54.85567 45.40124 35744 ft 456 kts 320°
2026-04-28 13:25 54.90614 45.33989 35744 ft 456 kts 320°
2026-04-28 13:26 54.95819 45.27656 35741 ft 456 kts 320°
2026-04-28 13:26 55.01020 45.21311 35734 ft 456 kts 320°
2026-04-28 13:27 55.06225 45.14942 35725 ft 456 kts 320°
2026-04-28 13:27 55.11432 45.08548 35724 ft 457 kts 320°
2026-04-28 13:28 55.16625 45.02152 35720 ft 456 kts 320°
2026-04-28 13:28 55.22085 44.95404 35717 ft 456 kts 320°
2026-04-28 13:29 55.31698 44.81131 35701 ft 445 kts 302°
2026-04-28 13:30 55.34590 44.72234 35693 ft 440 kts 291°
2026-04-28 13:30 55.37215 44.62502 35691 ft 440 kts 292°
2026-04-28 13:31 55.41103 44.48014 35688 ft 440 kts 292°
2026-04-28 13:31 55.43703 44.38233 35683 ft 441 kts 292°
2026-04-28 13:32 55.46283 44.28485 35685 ft 442 kts 292°
2026-04-28 13:32 55.48157 44.21374 35689 ft 442 kts 292°
2026-04-28 13:33 55.53776 43.99924 35697 ft 443 kts 292°
2026-04-28 13:34 55.55919 43.91688 35696 ft 443 kts 292°